Marshfield, WI

4:51 AM CDT on May 30, 2017 (GMT -0500)
Marshfield Municipal

Weather History for KMFI - October, 2015

Change the Weather History Date:

Monday, October 26, 2015

  Actual Average Record
Temperature  
Mean Temperature 50 °F -  
Max Temperature 55 °F 54 °F 83 °F (1927)
Min Temperature 45 °F 35 °F 12 °F (1962)
Degree Days  
Heating Degree Days 15    
Moisture  
Dew Point 37 °F    
Average Humidity 66    
Maximum Humidity 77    
Minimum Humidity 45    
Precipitation  
Precipitation 0.00 in - - ()
Sea Level Pressure  
Sea Level Pressure 30.35 in    
Wind  
Wind Speed 5 mph (ESE)    
Max Wind Speed 8 mph    
Max Gust Speed -    
Visibility 10 miles    
Events      
Averages and records for this station are not official NWS values.
T = Trace of Precipitation, MM = Missing Value Source: NWS Daily Summary

Daily Weather History Graph

Daily Weather History Graph

Search for Another Location

Airport or City:

Trip Planner

Search our weather history database for the weather conditions in past years. The results will help you decide how hot, cold, wet, or windy it might be!

Date:

Astronomy

Oct. 26, 2015 Rise Set
Actual Time 7:30 AM CDT 5:58 PM CDT
Civil Twilight 7:00 AM CDT 6:28 PM CDT
Nautical Twilight 6:25 AM CDT 7:02 PM CDT
Astronomical Twilight 5:52 AM CDT 7:36 PM CDT
Moon 5:48 PM CDT (10/26) 6:12 AM CDT (10/26)
Length of Visible Light 11h 28m
Length of Day
10h 28m
Waxing Gibbous, 99% of the Moon is Illuminated
Oct 26
Waxing Gibbous
Oct 27
Full
Nov 3
Last Quarter
Nov 11
New
Nov 19
First Quarter

Hourly Weather History & Observations

Time (CDT) Temp. Windchill Dew Point Humidity Pressure Visibility Wind Dir Wind Speed Gust Speed Precip Events Conditions
12:54 AM 46.9 °F - 37.9 °F 71% 30.37 in 10.0 mi East 4.6 mph - N/A   Overcast
1:54 AM 46.9 °F - 37.9 °F 71% 30.37 in 10.0 mi Calm Calm - N/A   Overcast
2:54 AM 46.0 °F 43.9 °F 37.9 °F 73% 30.38 in 10.0 mi ENE 4.6 mph - N/A   Overcast
3:54 AM 45.0 °F 43.5 °F 37.0 °F 74% 30.37 in 10.0 mi East 3.5 mph - N/A   Overcast
4:54 AM 45.0 °F 42.6 °F 37.0 °F 74% 30.37 in 10.0 mi East 4.6 mph - N/A   Overcast
5:54 AM 45.0 °F 43.5 °F 37.0 °F 74% 30.38 in 10.0 mi East 3.5 mph - N/A   Overcast
6:54 AM 45.0 °F 43.5 °F 37.0 °F 74% 30.38 in 10.0 mi SSE 3.5 mph - N/A   Overcast
7:54 AM 45.0 °F 41.8 °F 37.0 °F 74% 30.38 in 10.0 mi East 5.8 mph - N/A   Overcast
8:54 AM 45.0 °F 42.6 °F 37.9 °F 76% 30.40 in 10.0 mi ESE 4.6 mph - N/A   Overcast
9:54 AM 46.9 °F - 37.9 °F 71% 30.40 in 10.0 mi SE 3.5 mph - N/A   Overcast
10:54 AM 48.9 °F - 37.9 °F 66% 30.39 in 10.0 mi SE 4.6 mph - N/A   Overcast
11:54 AM 50.0 °F - 37.9 °F 63% 30.38 in 10.0 mi South 4.6 mph - N/A   Overcast
12:54 PM 54.0 °F - 37.0 °F 53% 30.36 in 10.0 mi SSE 5.8 mph - N/A   Overcast
1:54 PM 54.0 °F - 35.1 °F 49% 30.34 in 10.0 mi SSE 6.9 mph - N/A   Overcast
2:54 PM 55.9 °F - 35.1 °F 45% 30.32 in 10.0 mi South 5.8 mph - N/A   Mostly Cloudy
3:54 PM 54.0 °F - 35.1 °F 49% 30.32 in 10.0 mi SE 8.1 mph - N/A   Scattered Clouds
4:54 PM 54.0 °F - 36.0 °F 51% 30.32 in 10.0 mi SE 4.6 mph - N/A   Overcast
5:54 PM 51.1 °F - 37.9 °F 61% 30.32 in 10.0 mi East 5.8 mph - N/A   Scattered Clouds
6:54 PM 50.0 °F - 37.9 °F 63% 30.32 in 10.0 mi East 6.9 mph - N/A   Overcast
7:54 PM 50.0 °F - 37.9 °F 63% 30.32 in 10.0 mi East 6.9 mph - N/A   Overcast
8:54 PM 48.9 °F - 37.9 °F 66% 30.32 in 10.0 mi East 8.1 mph - N/A   Partly Cloudy
9:54 PM 48.0 °F - 39.0 °F 71% 30.32 in 10.0 mi East 5.8 mph - N/A   Scattered Clouds
10:54 PM 48.0 °F - 39.9 °F 74% 30.32 in 10.0 mi East 4.6 mph - N/A   Overcast
11:54 PM 46.9 °F - 39.9 °F 77% 30.34 in 10.0 mi East 5.8 mph - N/A   Overcast